This is the latest recevied weather packets stored in our database for station/object SP9KB-14. If no packets are shown the sender has not sent any weather packets the latest 10 day(s).
| Time | Temp. | Humidity | Pressure | Rain* | Wind** | Luminosity | Snow |
|---|---|---|---|---|---|---|---|
| 1777986999 | 26.67° C | 30% | 1031.1 hPa | 0 mm | - | - | - |
| 1777986698 | 26.67° C | 30% | 1031 hPa | 0 mm | - | - | - |
| 1777986398 | 26.67° C | 29% | 1030.9 hPa | 0 mm | - | - | - |
| 1777986097 | 26.67° C | 29% | 1031.2 hPa | 0 mm | - | - | - |
| 1777985795 | 27.22° C | 30% | 1031.2 hPa | 0 mm | - | - | - |
| 1777985495 | 27.22° C | 30% | 1031.3 hPa | 0 mm | - | - | - |
| 1777985194 | 26.67° C | 30% | 1031.2 hPa | 0 mm | - | - | - |
| 1777984894 | 27.22° C | 30% | 1031.3 hPa | 0 mm | - | - | - |
| 1777984593 | 26.67° C | 28% | 1031.6 hPa | 0 mm | - | - | - |
| 1777984293 | 26.67° C | 28% | 1031.3 hPa | 0 mm | - | - | - |
| 1777983992 | 26.67° C | 28% | 1031.4 hPa | 0 mm | - | - | - |
| 1777983691 | 25.56° C | 29% | 1031.6 hPa | 0 mm | - | - | - |
| 1777983391 | 25° C | 30% | 1031.8 hPa | 0 mm | - | - | - |
| 1777983090 | 25.56° C | 31% | 1031.8 hPa | 0 mm | - | - | - |
| 1777982790 | 25.56° C | 29% | 1031.8 hPa | 0 mm | - | - | - |
| 1777982489 | 25.56° C | 29% | 1031.8 hPa | 0 mm | - | - | - |
| 1777982189 | 25.56° C | 30% | 1031.6 hPa | 0 mm | - | - | - |
| 1777981887 | 25.56° C | 30% | 1031.9 hPa | 0 mm | - | - | - |
| 1777981587 | 26.11° C | 29% | 1031.8 hPa | 0 mm | - | - | - |
| 1777981287 | 26.67° C | 29% | 1031.9 hPa | 0 mm | - | - | - |
| 1777980986 | 26.11° C | 32% | 1031.8 hPa | 0 mm | - | - | - |
| 1777980685 | 26.11° C | 31% | 1031.9 hPa | 0 mm | - | - | - |
| 1777980385 | 26.67° C | 32% | 1031.9 hPa | 0 mm | - | - | - |
| 1777980084 | 26.11° C | 31% | 1031.7 hPa | 0 mm | - | - | - |
| 1777979784 | 26.11° C | 31% | 1032.1 hPa | 0 mm | - | - | - |
* Rain latest hour (hover to see other rain measurements)
** Current wind speed in m/s (hover to see current wind gust speed)